Location: *
(33.8649°S, 62.1526°E)
Time: 13:08:50
(UTC+00:00)

Cosmos 1656 Rocket - Pass Details

Date: 17 January 2021
Orbit: 797 x 845 km, 71.1° (Epoch: 03 March)

Event Time Altitude Azimuth Distance (km) Brightness Sun altitude
Rises 16:36:35 0° 196° (SSW) 3,415 7.8 -16.9°
Reaches altitude 10° 16:39:06 10° 191° (S) 2,480 6.9 -17.3°
Maximum altitude 16:44:41 53° 114° (ESE) 1,034 4.0 -18.1°
Enters shadow 16:47:03 32° 54° (NE) 1,411 4.3 -18.5°
